Home > Time Zones > World Clock > Weather > Aktau > Past weeks

Flag for Kazakhstan Weather past 2 weeks in Aktau, Kazakhstan

Now
45 °F

Fog.


Feels Like: 40 °F
Forecast: 36 / 47 °F
Wind: 8 mph from East

Location: Aktau

Current Time: Dec 26, 2014 at 3:54:46 PM

Latest Report: Dec 26, 2014 at 3:30 PM


Visibility: 0 mi

Pressure: 30.09 "Hg

Humidity: 87%

Dew point: 41 °F

Location of AktauLocation

Historic Weather in Aktau — Graph

°F

Aktau temperature yesterday

Maximum temperature yesterday: 48 °F (at 12:00 AM)
Minimum temperature yesterday: 41 °F (at 5:30 AM)
Average temperature yesterday: 44 °F

Past Weeks' High & Low Weather Summary

 TemperatureHumidityPressure
High48 °F (Dec 13, 2:30 PM)93% (Dec 14, 12:30 AM)30.48 "Hg (Dec 14, 12:30 AM)
Low23 °F (Dec 17, 6:00 AM)25% (Dec 13, 1:00 PM)29.74 "Hg (Dec 24, 3:00 PM)
Average35 °F80%30.18 "Hg
* Reported Dec 11 2:00 PM — Dec 26 2:30 PM, Aktau, Weather by CustomWeather, © 2014

Note: Actual official high and low records may vary slightly from our data, if they occured in-between our weather recording intervals... More about our weather records

Advertising

Aktau weather history for previous 24 hours

 ConditionsComfort  
Time TempWeatherWind HumidityBarometerVisibility
2:30 PM
Dec 26
43 °FFog.8 mph93%30.09 "Hg0 mi
2:00 PM43 °FFog.8 mph93%30.09 "Hg0 mi
1:30 PM43 °FFog.8 mph93%30.09 "Hg0 mi
1:00 PM43 °FDrizzle. Fog.8 mph93%30.09 "Hg0 mi
12:30 PM41 °FDrizzle. Fog.8 mph93%30.09 "Hg0 mi
12:00 PM41 °FDrizzle. Fog.6 mph93%30.12 "Hg0 mi
11:30 AM41 °FFog.13 mph93%30.09 "Hg0 mi
11:00 AM41 °FFog.10 mph93%30.09 "Hg0 mi
10:30 AM39 °FFog.8 mph93%30.09 "Hg0 mi
10:00 AM39 °FFog.13 mph93%30.07 "Hg0 mi
9:30 AM37 °FFog.13 mph93%30.04 "Hg0 mi
9:00 AM37 °FFog.13 mph93%30.04 "Hg0 mi
8:30 AM37 °FFog.13 mph93%30.04 "Hg0 mi
7:30 AM34 °FPassing clouds.8 mph93%30.04 "HgN/A
7:00 AM34 °FPassing clouds.8 mph93%30.04 "HgN/A
6:30 AM34 °FFog.8 mph93%30.04 "Hg3 mi
6:00 AM34 °FFog.8 mph93%30.04 "Hg1 mi
5:30 AM34 °FFog.8 mph93%30.01 "Hg3 mi
5:00 AM36 °FClear.13 mph93%30.01 "Hg10 mi
4:30 AM36 °FClear.10 mph93%30.04 "Hg10 mi
4:00 AM36 °FClear.8 mph93%30.04 "Hg10 mi
3:30 AM37 °FClear.13 mph87%30.04 "Hg10 mi
2:30 AM37 °FFog.8 mph87%30.04 "Hg1 mi
1:30 AM39 °FClear.10 mph87%30.07 "Hg10 mi
1:00 AM41 °FClear.10 mph81%30.07 "Hg10 mi
12:30 AM41 °FClear.10 mph87%30.07 "Hg10 mi
12:00 AM41 °FClear.8 mph93%30.07 "Hg10 mi
11:30 PM
Dec 25
41 °FClear.8 mph93%30.07 "Hg10 mi
11:00 PM41 °FClear.8 mph87%30.07 "Hg10 mi
10:30 PM41 °FClear.13 mph87%30.09 "Hg10 mi
10:00 PM41 °FClear.10 mph93%30.09 "Hg10 mi
9:30 PM41 °FPassing clouds.8 mph87%30.09 "HgN/A
9:00 PM43 °FClear.8 mph87%30.09 "Hg10 mi
8:30 PM43 °FPassing clouds.8 mph87%30.09 "HgN/A
8:00 PM45 °FBroken clouds.10 mph87%30.09 "HgN/A
7:30 PM45 °FBroken clouds.10 mph81%30.09 "HgN/A
7:00 PM45 °FBroken clouds.13 mph87%30.09 "HgN/A
6:30 PM45 °FBroken clouds.13 mph87%30.09 "HgN/A
6:00 PM45 °FBroken clouds.13 mph81%30.09 "HgN/A
5:30 PM45 °FSunny.10 mph76%30.09 "Hg10 mi
5:00 PM45 °FSunny.10 mph81%30.09 "Hg10 mi
4:30 PM46 °FSunny.13 mph71%30.09 "Hg10 mi
4:00 PM46 °FSunny.15 mph71%30.09 "Hg10 mi
3:30 PM46 °FSunny.13 mph66%30.12 "Hg10 mi
3:00 PM46 °FBroken clouds.13 mph66%30.12 "HgN/A
Weather by CustomWeather, © 2014

See weather overviewHow to use our weather pages